SCP
0 0 0 0 0 0 0 0 0 0 0 0 0 0 0 0 0 0 0 0 0 0 1 1 1 0 0 1 0 0 0 0 0 0 0 0 0 0 0 0 0 0 0
0 0 0 0 0 0 0 0 0 0 0 0 0 0 0 0 0 0 0 0 0 0 1 0 0 0 0 1 0 0 0 0 0 0 0 0 0 0 0 0 0 0 0
0 0 0 0 0 0 0 0 0 0 0 0 0 0 0 0 0 0 0 0 0 0 1 1 0 0 0 0 0 0 0 0 0 0 0 0 0 0 0 0 0 0 0
0 0 0 0 0 0 0 0 0 0 0 0 0 0 0 0 0 0 0 0 0 0 0 1 0 0 0 0 0 0 0 0 0 0 0 0 0 0 0 0 0 0 0
0 0 0 0 0 0 0 0 0 0 0 0 0 0 0 0 0 0 0 0 0 0 0 0 0 0 0 0 -0 0 0 0 0 0 0 0 0 0 0 0 0 0 0
0 0 0 0 0 0 0 0 0 0 0 0 0 0 0 0 0 0 0 0 0 0 0 0 1 0 0 -0 -0 0 0 0 0 -0 0 0 0 0 0 0 0 0 0
0 0 0 0 0 0 0 0 0 0 0 0 0 0 0 0 0 0 0 0 0 0 0 0 0 0 0 0 -0 -0 0 0 0 0 0 0 0 0 0 -0 -0 -0 0
0 0 0 0 0 0 0 0 0 0 0 0 0 0 0 0 0 0 0 0 0 0 0 0 0 0 0 0 0 0 0 -0 0 0 0 0 0 0 -0 -0 0 0 0
0 0 0 0 0 0 0 0 -0 0 0 0 0 0 0 0 0 0 0 0 0 0 0 0 0 0 0 0 0 0 0 0 0 0 0 -0 -0 -0 0 0 0 0 0
0 0 0 0 0 0 -0 0 0 0 0 0 0 0 0 0 0 0 0 0 0 0 0 0 0 0 0 0 0 0 0 0 -0 -0 -0 0 0 -0 0 -0 0 0 -0
0 0 0 0 -0 0 0 0 0 0 0 0 0 0 0 0 0 0 0 0 0 0 0 0 0 0 0 0 0 0 0 0 -0 0 0 -0 0 -0 0 0 0 0 -0
0 -0 0 0 0 0 0 0 0 0 0 0 0 0 0 0 0 0 0 0 0 0 0 0 0 0 0 0 0 0 0 0 -0 0 0 0 -0 -0 -0 0 0 0 0
-0 -0 -0 0 0 0 0 0 0 0 0 0 0 0 0 0 0 0 0 0 0 0 0 0 0 0 0 0 0 0 0 -0 0 -0 0 0 -0 -0 0 0 0 0 0
-0 -0 -0 0 0 0 0 0 0 0 0 0 0 0 0 0 0 0 0 0 0 0 0 0 0 0 0 0 0 0 0 0 -0 0 0 -0 0 0 0 -0 -0 -0 -0
-0 -0 0 0 0 0 0 0 0 0 0 0 0 0 0 0 0 0 0 0 0 0 0 0 0 0 0 0 0 0 0 0 0 0 -0 -0 -0 -0 -0 -0 -0 -0 0
-0 0 0 0 0 0 0 0 0 0 0 0 0 0 0 0 0 0 0 0 0 0 0 0 0 0 0 0 0 0 0 0 0 0 -0 -0 -0 -0 -0 -0 0 0 0
0 0 0 0 0 0 0 0 0 0 0 0 0 0 0 0 0 0 0 0 0 0 0 0 0 0 0 0 0 0 0 0 0 0 -0 -0 -0 -0 0 0 0 0 0
0 0 0 0 0 0 0 0 0 0 0 0 0 0 0 0 0 0 0 0 0 0 0 0 0 0 0 0 0 0 0 0 0 -0 -0 -0 -0 -0 -0 -0 0 0 0
0 0 0 0 0 0 0 0 0 0 0 0 0 0 0 0 0 0 0 0 0 0 0 0 0 0 0 0 0 0 0 0 0 -0 -0 -0 0 0 0 0 0 0 0
-0 -0 0 0 0 0 0 0 0 0 0 0 0 0 0 0 0 0 0 0 0 0 0 0 0 0 0 0 0 0 0 0 0 0 0 0 0 0 0 0 0 0 0
0 -0 -0 -0 0 0 0 0 0 0 0 0 0 0 0 0 0 0 0 0 0 0 0 0 0 0 0 0 0 0 0 0 0 0 0 0 0 0 0 0 0 0 0
-0 -0 -0 -0 0 0 0 0 0 0 0 0 0 0 0 0 -0 0 -0 0 0 0 0 0 0 0 -0 0 0 0 0 0 0 0 0 0 0 0 0 0 0 0 0
-0 0 0 0 0 0 0 0 0 0 0 0 0 0 0 0 0 0 0 0 0 -0 -0 -0 -0 0 0 -0 -0 -0 -0 0 0 0 0 0 0 0 0 0 0 0 0
0 0 0 0 -0 0 -0 -0 0 0 0 0 0 0 0 -0 -0 -0 -0 -0 0 0 0 0 0 0 0 -0 -0 -0 -0 0 0 0 0 0 0 0 0 0 0 0 0
0 0 0 0 0 0 -0 0 0 0 0 0 0 0 0 0 -0 -0 -0 0 0 0 0 0 0 0 0 -0 -0 -0 0 0 0 0 0 0 0 0 0 0 0 0 0
0 0 0 0 0 0 0 0 0 0 0 0 0 0 -0 0 -0 -0 0 0 0 0 0 -0 0 -0 0 -0 -0 -0 0 0 0 0 0 0 0 0 0 0 0 0 0
Wind_Speed_500mb
25 27 27 26 21 22 26 24 23 24 27 30 34 38 40 39 37 38 39 41 42 45 42 39 43 48 58 65 74 73 65 68 61 58 45 40 39 38 35 28 22 17 15
25 28 29 29 25 23 23 23 25 24 26 30 32 33 35 33 37 38 38 39 42 44 42 40 45 49 61 82 83 73 73 62 64 64 57 45 39 35 31 27 20 16 13
28 27 28 28 28 26 24 21 21 24 26 31 31 34 33 33 35 34 33 36 38 41 40 41 44 49 69 97 77 71 70 69 67 68 61 48 39 34 28 23 18 15 14
30 27 27 25 26 27 23 23 23 26 25 30 32 32 32 31 34 31 30 30 34 37 39 42 43 45 74 86 60 77 75 74 73 68 54 43 40 32 27 21 15 20 23
27 26 25 21 25 25 23 25 23 26 27 27 28 31 30 31 32 28 29 27 30 33 36 38 42 45 61 70 95 84 82 77 74 70 58 44 38 28 22 18 22 23 19
24 24 23 22 25 23 22 25 24 26 26 22 25 26 28 30 28 24 28 26 28 28 30 29 36 37 52 95 95 87 84 80 80 63 53 45 32 20 14 11 22 22 17
24 25 23 21 24 22 22 23 25 29 29 23 19 20 18 24 20 22 23 20 27 27 26 30 38 38 48 71 90 83 80 86 68 61 52 45 35 23 16 25 24 24 15
21 25 22 20 18 17 21 23 27 33 31 27 19 17 11 19 22 19 17 20 18 19 22 23 36 39 52 27 62 76 90 75 71 61 56 46 31 23 29 27 22 17 10
18 17 17 17 14 14 13 14 20 32 33 30 22 11 9 8 18 12 13 12 13 17 12 29 23 53 51 55 76 83 70 74 76 67 61 57 32 27 26 26 22 14 9
7 4 9 11 10 9 11 15 19 25 28 29 26 21 10 11 13 11 8 8 5 12 11 29 28 60 71 81 86 69 84 76 71 67 61 39 30 30 29 26 18 11 7
3 6 8 10 9 8 10 15 21 26 24 22 28 36 22 3 11 11 18 28 15 16 23 38 21 42 51 83 76 64 76 73 71 55 39 28 32 33 28 23 15 8 5
8 10 12 9 8 7 11 15 21 22 22 19 22 24 28 15 18 23 37 44 37 30 27 26 42 59 75 71 73 82 74 65 57 42 36 29 31 29 23 18 12 5 5
13 15 14 12 10 12 13 13 18 20 20 20 22 22 28 14 15 25 47 50 46 47 34 36 50 63 66 82 84 82 71 55 45 38 36 32 27 17 18 13 8 4 4
15 19 18 11 12 13 11 9 14 20 16 20 22 29 26 18 24 23 38 50 47 47 42 43 39 63 88 84 72 61 58 49 42 35 28 19 18 19 17 10 5 4 2
17 22 19 12 10 10 8 8 13 15 11 17 16 20 18 22 35 21 34 44 64 39 42 43 49 76 92 79 65 55 48 40 36 27 22 19 19 19 16 10 5 4 6
19 21 20 15 9 8 7 9 9 9 10 17 13 14 19 30 37 20 36 43 50 57 41 50 58 65 80 57 56 48 44 35 28 21 17 18 18 18 14 9 5 6 7
17 18 20 16 9 8 8 8 10 11 11 13 11 12 19 33 38 25 36 45 42 42 56 43 58 55 67 57 57 47 39 30 22 18 18 16 15 13 10 4 1 4 8
17 16 14 15 13 9 10 11 13 14 12 13 15 18 20 27 35 28 39 37 39 31 47 54 54 57 68 45 48 44 26 26 22 18 15 14 14 12 8 3 3 8 14
17 17 17 17 18 17 20 21 20 20 23 21 19 20 20 31 26 30 27 35 29 32 43 49 54 58 57 46 48 36 23 26 23 18 16 16 16 11 5 2 9 13 19
23 21 22 24 23 22 19 18 19 19 19 21 21 25 29 27 32 38 36 33 32 36 42 44 50 70 56 51 41 32 25 25 24 23 21 17 12 6 2 4 9 13 16
23 23 26 27 24 20 22 22 24 19 17 19 21 26 25 22 27 36 34 33 32 43 46 43 49 50 47 48 36 25 29 28 25 24 21 14 8 6 6 6 6 13 21
22 23 23 22 21 21 18 15 8 6 6 15 23 26 29 38 46 34 24 27 36 46 45 48 47 42 40 39 31 28 33 31 30 29 21 17 13 14 11 8 12 17 21
19 20 19 16 16 18 18 16 9 6 14 27 27 32 34 46 48 41 46 43 46 49 55 45 29 28 30 31 33 35 36 35 29 23 21 24 15 9 7 7 13 21 28
20 18 16 13 17 21 21 19 13 26 26 29 30 35 37 56 44 50 47 42 42 41 32 18 27 34 36 38 35 34 32 28 24 24 23 20 14 8 2 6 15 26 32
19 20 17 19 21 30 26 22 29 29 37 35 36 44 41 45 54 44 38 33 31 32 32 31 32 32 31 32 28 25 22 21 24 23 22 20 11 8 7 7 18 26 30
19 22 21 25 28 36 33 33 33 36 35 39 53 61 57 50 44 35 27 31 32 28 26 30 31 29 28 30 28 25 20 18 16 19 15 9 6 4 3 6 17 23 32
Wind_Direction_500mb
275 268 268 265 273 272 265 261 262 255 244 231 225 227 228 238 237 227 229 233 232 228 231 233 229 223 213 204 203 191 185 186 188 184 172 176 175 171 169 159 157 164 177
281 271 266 265 260 272 265 258 260 250 239 230 225 227 228 236 228 224 231 235 230 228 231 235 233 224 210 200 188 192 197 196 187 175 170 171 179 172 160 163 158 174 179
281 274 269 261 255 262 261 256 258 245 239 225 217 218 224 233 224 224 237 234 227 229 233 237 238 222 212 207 211 202 195 189 185 174 162 176 176 167 164 162 163 171 172
275 274 268 263 253 255 257 256 262 242 236 224 216 220 227 233 223 230 238 227 227 228 235 240 236 212 210 214 199 193 187 185 174 162 162 174 172 166 169 161 175 174 152
274 273 274 267 247 248 254 257 255 238 230 226 223 227 229 227 223 236 228 225 227 232 239 245 235 209 204 200 196 191 185 182 170 158 164 173 162 165 156 176 164 153 151
275 270 276 262 241 248 254 254 248 231 221 220 222 225 230 223 226 235 226 229 238 238 244 250 230 210 203 179 195 187 186 175 157 160 169 161 151 136 168 168 156 162 159
275 276 275 256 238 251 258 249 238 221 208 206 208 213 219 215 230 234 229 242 244 245 248 239 222 219 212 211 180 187 177 159 162 164 162 149 131 176 178 167 161 175 137
285 274 265 240 241 251 254 247 233 205 197 196 197 190 197 214 230 238 241 249 236 243 244 220 212 225 213 190 180 167 154 163 161 155 150 134 151 187 171 163 164 151 122
290 270 234 223 237 247 251 223 202 189 195 194 186 175 165 194 201 210 222 213 226 239 215 220 208 192 208 188 163 155 164 159 148 148 140 166 184 183 165 171 164 144 122
302 196 190 210 216 218 214 190 181 184 191 192 192 179 171 192 172 154 147 211 185 182 197 205 157 180 179 160 157 159 144 141 138 140 164 173 179 173 176 174 158 138 139
215 205 186 178 183 196 181 174 176 179 187 204 203 183 187 183 204 177 152 162 171 179 181 174 164 163 177 159 158 147 137 145 146 163 166 161 163 173 179 161 155 161 131
205 178 160 148 152 171 171 178 178 184 187 200 204 211 214 224 196 186 156 160 154 159 162 169 170 161 164 158 158 148 153 149 158 158 159 146 164 177 167 166 159 144 109
184 171 153 135 133 132 127 144 170 182 201 208 212 208 215 213 221 191 160 149 149 163 164 191 174 160 150 141 142 147 151 154 153 157 160 152 162 166 169 168 150 103 103
171 168 157 144 140 115 116 140 177 184 187 211 198 197 218 242 190 170 162 171 151 142 155 147 162 157 149 148 145 150 149 150 148 152 139 155 159 159 166 145 120 76 70
162 168 161 159 152 137 118 132 165 178 213 198 193 205 200 187 178 213 166 165 159 140 126 164 146 151 151 152 154 152 143 145 149 144 146 151 155 152 143 147 129 68 23
156 162 168 167 155 149 120 136 155 179 182 183 193 196 193 181 191 142 158 174 167 154 137 148 163 150 152 144 143 142 145 144 140 140 139 142 145 142 158 153 80 42 10
157 160 170 175 167 153 135 117 128 139 159 164 159 140 160 178 181 161 167 185 165 166 149 146 157 163 160 154 150 145 140 141 130 132 135 143 144 149 140 132 69 353 332
153 158 172 177 164 141 120 105 109 111 133 138 145 144 150 165 172 165 164 160 165 172 162 145 156 158 170 151 146 129 125 128 125 126 138 151 144 136 135 145 318 316 323
144 146 140 143 136 121 108 102 103 103 103 106 114 147 147 169 163 166 156 158 165 163 160 152 156 168 175 175 146 134 129 122 126 130 133 131 127 130 125 311 307 313 312
129 129 127 132 131 121 110 110 109 102 97 101 116 136 143 157 155 160 153 153 157 148 154 145 146 166 154 148 151 153 137 129 135 136 129 116 114 124 127 298 319 314 315
124 125 126 130 128 125 120 112 105 99 92 95 121 133 129 149 155 161 164 160 157 152 148 152 145 143 148 156 161 157 152 142 135 122 117 121 116 102 76 52 14 341 330
127 132 130 126 131 132 140 146 139 99 124 136 133 132 150 153 137 142 153 169 161 143 150 149 147 146 152 154 163 155 151 144 130 128 134 132 109 106 79 34 352 336 334
139 138 138 136 144 146 151 154 138 115 136 142 140 137 148 142 136 139 133 128 134 138 132 128 137 154 161 155 152 148 142 139 142 138 142 129 116 94 58 19 342 346 351
140 150 142 145 150 155 153 148 127 128 122 131 144 145 154 145 140 141 135 131 133 145 159 142 123 127 139 143 137 136 145 153 149 145 151 137 130 125 126 354 354 357 349
136 144 143 120 141 139 135 141 130 119 123 124 144 148 154 146 148 139 136 135 138 139 138 133 128 130 138 144 150 161 165 167 158 151 160 161 135 163 186 357 356 347 344
133 135 140 124 125 120 125 124 128 133 132 123 130 133 140 144 141 137 139 139 139 139 145 150 143 131 136 148 154 156 167 166 159 150 158 169 134 153 243 328 343 354 357
Wind_Speed_850mb
25 27 27 26 21 22 26 24 23 24 27 30 34 38 40 39 37 38 39 41 42 45 42 39 43 48 58 65 74 73 65 68 61 58 45 40 39 38 35 28 22 17 15
25 28 29 29 25 23 23 23 25 24 26 30 32 33 35 33 37 38 38 39 42 44 42 40 45 49 61 82 83 73 73 62 64 64 57 45 39 35 31 27 20 16 13
28 27 28 28 28 26 24 21 21 24 26 31 31 34 33 33 35 34 33 36 38 41 40 41 44 49 69 97 77 71 70 69 67 68 61 48 39 34 28 23 18 15 14
30 27 27 25 26 27 23 23 23 26 25 30 32 32 32 31 34 31 30 30 34 37 39 42 43 45 74 86 60 77 75 74 73 68 54 43 40 32 27 21 15 20 23
27 26 25 21 25 25 23 25 23 26 27 27 28 31 30 31 32 28 29 27 30 33 36 38 42 45 61 70 95 84 82 77 74 70 58 44 38 28 22 18 22 23 19
24 24 23 22 25 23 22 25 24 26 26 22 25 26 28 30 28 24 28 26 28 28 30 29 36 37 52 95 95 87 84 80 80 63 53 45 32 20 14 11 22 22 17
24 25 23 21 24 22 22 23 25 29 29 23 19 20 18 24 20 22 23 20 27 27 26 30 38 38 48 71 90 83 80 86 68 61 52 45 35 23 16 25 24 24 15
21 25 22 20 18 17 21 23 27 33 31 27 19 17 11 19 22 19 17 20 18 19 22 23 36 39 52 27 62 76 90 75 71 61 56 46 31 23 29 27 22 17 10
18 17 17 17 14 14 13 14 20 32 33 30 22 11 9 8 18 12 13 12 13 17 12 29 23 53 51 55 76 83 70 74 76 67 61 57 32 27 26 26 22 14 9
7 4 9 11 10 9 11 15 19 25 28 29 26 21 10 11 13 11 8 8 5 12 11 29 28 60 71 81 86 69 84 76 71 67 61 39 30 30 29 26 18 11 7
3 6 8 10 9 8 10 15 21 26 24 22 28 36 22 3 11 11 18 28 15 16 23 38 21 42 51 83 76 64 76 73 71 55 39 28 32 33 28 23 15 8 5
8 10 12 9 8 7 11 15 21 22 22 19 22 24 28 15 18 23 37 44 37 30 27 26 42 59 75 71 73 82 74 65 57 42 36 29 31 29 23 18 12 5 5
13 15 14 12 10 12 13 13 18 20 20 20 22 22 28 14 15 25 47 50 46 47 34 36 50 63 66 82 84 82 71 55 45 38 36 32 27 17 18 13 8 4 4
15 19 18 11 12 13 11 9 14 20 16 20 22 29 26 18 24 23 38 50 47 47 42 43 39 63 88 84 72 61 58 49 42 35 28 19 18 19 17 10 5 4 2
17 22 19 12 10 10 8 8 13 15 11 17 16 20 18 22 35 21 34 44 64 39 42 43 49 76 92 79 65 55 48 40 36 27 22 19 19 19 16 10 5 4 6
19 21 20 15 9 8 7 9 9 9 10 17 13 14 19 30 37 20 36 43 50 57 41 50 58 65 80 57 56 48 44 35 28 21 17 18 18 18 14 9 5 6 7
17 18 20 16 9 8 8 8 10 11 11 13 11 12 19 33 38 25 36 45 42 42 56 43 58 55 67 57 57 47 39 30 22 18 18 16 15 13 10 4 1 4 8
17 16 14 15 13 9 10 11 13 14 12 13 15 18 20 27 35 28 39 37 39 31 47 54 54 57 68 45 48 44 26 26 22 18 15 14 14 12 8 3 3 8 14
17 17 17 17 18 17 20 21 20 20 23 21 19 20 20 31 26 30 27 35 29 32 43 49 54 58 57 46 48 36 23 26 23 18 16 16 16 11 5 2 9 13 19
23 21 22 24 23 22 19 18 19 19 19 21 21 25 29 27 32 38 36 33 32 36 42 44 50 70 56 51 41 32 25 25 24 23 21 17 12 6 2 4 9 13 16
23 23 26 27 24 20 22 22 24 19 17 19 21 26 25 22 27 36 34 33 32 43 46 43 49 50 47 48 36 25 29 28 25 24 21 14 8 6 6 6 6 13 21
22 23 23 22 21 21 18 15 8 6 6 15 23 26 29 38 46 34 24 27 36 46 45 48 47 42 40 39 31 28 33 31 30 29 21 17 13 14 11 8 12 17 21
19 20 19 16 16 18 18 16 9 6 14 27 27 32 34 46 48 41 46 43 46 49 55 45 29 28 30 31 33 35 36 35 29 23 21 24 15 9 7 7 13 21 28
20 18 16 13 17 21 21 19 13 26 26 29 30 35 37 56 44 50 47 42 42 41 32 18 27 34 36 38 35 34 32 28 24 24 23 20 14 8 2 6 15 26 32
19 20 17 19 21 30 26 22 29 29 37 35 36 44 41 45 54 44 38 33 31 32 32 31 32 32 31 32 28 25 22 21 24 23 22 20 11 8 7 7 18 26 30
19 22 21 25 28 36 33 33 33 36 35 39 53 61 57 50 44 35 27 31 32 28 26 30 31 29 28 30 28 25 20 18 16 19 15 9 6 4 3 6 17 23 32
Wind_Direction_850mb
275 268 268 265 273 272 265 261 262 255 244 231 225 227 228 238 237 227 229 233 232 228 231 233 229 223 213 204 203 191 185 186 188 184 172 176 175 171 169 159 157 164 177
281 271 266 265 260 272 265 258 260 250 239 230 225 227 228 236 228 224 231 235 230 228 231 235 233 224 210 200 188 192 197 196 187 175 170 171 179 172 160 163 158 174 179
281 274 269 261 255 262 261 256 258 245 239 225 217 218 224 233 224 224 237 234 227 229 233 237 238 222 212 207 211 202 195 189 185 174 162 176 176 167 164 162 163 171 172
275 274 268 263 253 255 257 256 262 242 236 224 216 220 227 233 223 230 238 227 227 228 235 240 236 212 210 214 199 193 187 185 174 162 162 174 172 166 169 161 175 174 152
274 273 274 267 247 248 254 257 255 238 230 226 223 227 229 227 223 236 228 225 227 232 239 245 235 209 204 200 196 191 185 182 170 158 164 173 162 165 156 176 164 153 151
275 270 276 262 241 248 254 254 248 231 221 220 222 225 230 223 226 235 226 229 238 238 244 250 230 210 203 179 195 187 186 175 157 160 169 161 151 136 168 168 156 162 159
275 276 275 256 238 251 258 249 238 221 208 206 208 213 219 215 230 234 229 242 244 245 248 239 222 219 212 211 180 187 177 159 162 164 162 149 131 176 178 167 161 175 137
285 274 265 240 241 251 254 247 233 205 197 196 197 190 197 214 230 238 241 249 236 243 244 220 212 225 213 190 180 167 154 163 161 155 150 134 151 187 171 163 164 151 122
290 270 234 223 237 247 251 223 202 189 195 194 186 175 165 194 201 210 222 213 226 239 215 220 208 192 208 188 163 155 164 159 148 148 140 166 184 183 165 171 164 144 122
302 196 190 210 216 218 214 190 181 184 191 192 192 179 171 192 172 154 147 211 185 182 197 205 157 180 179 160 157 159 144 141 138 140 164 173 179 173 176 174 158 138 139
215 205 186 178 183 196 181 174 176 179 187 204 203 183 187 183 204 177 152 162 171 179 181 174 164 163 177 159 158 147 137 145 146 163 166 161 163 173 179 161 155 161 131
205 178 160 148 152 171 171 178 178 184 187 200 204 211 214 224 196 186 156 160 154 159 162 169 170 161 164 158 158 148 153 149 158 158 159 146 164 177 167 166 159 144 109
184 171 153 135 133 132 127 144 170 182 201 208 212 208 215 213 221 191 160 149 149 163 164 191 174 160 150 141 142 147 151 154 153 157 160 152 162 166 169 168 150 103 103
171 168 157 144 140 115 116 140 177 184 187 211 198 197 218 242 190 170 162 171 151 142 155 147 162 157 149 148 145 150 149 150 148 152 139 155 159 159 166 145 120 76 70
162 168 161 159 152 137 118 132 165 178 213 198 193 205 200 187 178 213 166 165 159 140 126 164 146 151 151 152 154 152 143 145 149 144 146 151 155 152 143 147 129 68 23
156 162 168 167 155 149 120 136 155 179 182 183 193 196 193 181 191 142 158 174 167 154 137 148 163 150 152 144 143 142 145 144 140 140 139 142 145 142 158 153 80 42 10
157 160 170 175 167 153 135 117 128 139 159 164 159 140 160 178 181 161 167 185 165 166 149 146 157 163 160 154 150 145 140 141 130 132 135 143 144 149 140 132 69 353 332
153 158 172 177 164 141 120 105 109 111 133 138 145 144 150 165 172 165 164 160 165 172 162 145 156 158 170 151 146 129 125 128 125 126 138 151 144 136 135 145 318 316 323
144 146 140 143 136 121 108 102 103 103 103 106 114 147 147 169 163 166 156 158 165 163 160 152 156 168 175 175 146 134 129 122 126 130 133 131 127 130 125 311 307 313 312
129 129 127 132 131 121 110 110 109 102 97 101 116 136 143 157 155 160 153 153 157 148 154 145 146 166 154 148 151 153 137 129 135 136 129 116 114 124 127 298 319 314 315
124 125 126 130 128 125 120 112 105 99 92 95 121 133 129 149 155 161 164 160 157 152 148 152 145 143 148 156 161 157 152 142 135 122 117 121 116 102 76 52 14 341 330
127 132 130 126 131 132 140 146 139 99 124 136 133 132 150 153 137 142 153 169 161 143 150 149 147 146 152 154 163 155 151 144 130 128 134 132 109 106 79 34 352 336 334
139 138 138 136 144 146 151 154 138 115 136 142 140 137 148 142 136 139 133 128 134 138 132 128 137 154 161 155 152 148 142 139 142 138 142 129 116 94 58 19 342 346 351
140 150 142 145 150 155 153 148 127 128 122 131 144 145 154 145 140 141 135 131 133 145 159 142 123 127 139 143 137 136 145 153 149 145 151 137 130 125 126 354 354 357 349
136 144 143 120 141 139 135 141 130 119 123 124 144 148 154 146 148 139 136 135 138 139 138 133 128 130 138 144 150 161 165 167 158 151 160 161 135 163 186 357 356 347 344
133 135 140 124 125 120 125 124 128 133 132 123 130 133 140 144 141 137 139 139 139 139 145 150 143 131 136 148 154 156 167 166 159 150 158 169 134 153 243 328 343 354 357